Terminal Aerodrome Forecast
Issued by NWS

Home | Current Version | Previous Version | Text Only | Print | Product List | Glossary On
Versions: 1 2 3 4 5 6 7 8 9 10 11 12 13
075
FTUS45 KRIW 062323
TAFRKS
TAF
KRKS 062323Z 0700/0724 26025G32KT P6SM FEW050 BKN200
     FM070400 26020G28KT P6SM SCT025=

USA.gov is the U.S. government's official web portal to all federal, state and local government web resources and services.